Radiation Dose at Monitoring Post of Fukushima Daini Nuclear Power Station
Date,Time,MP-1(microSv/h),MP-2(microSv/h),MP-3(microSv/h),MP-4(microSv/h),MP-5(microSv/h),MP-6(microSv/h),MP-7(microSv/h),Wind Direction,Wind Velocity(m/s),Rain
2017/04/07,00:00,0.381,0.231,0.393,0.364,0.330,0.192,0.163,south,11.1,Yes
2017/04/07,00:10,0.378,0.230,0.395,0.367,0.331,0.192,0.163,south,11.7,Yes
2017/04/07,00:20,0.378,0.230,0.394,0.365,0.330,0.192,0.162,south,10.7,Yes
2017/04/07,00:30,0.381,0.232,0.391,0.366,0.332,0.193,0.164,south-southwest,11.5,No
2017/04/07,00:40,0.379,0.230,0.394,0.367,0.332,0.192,0.164,south-southwest,11.5,No
2017/04/07,00:50,0.379,0.230,0.393,0.364,0.332,0.192,0.163,south-southwest,11.5,No
2017/04/07,01:00,0.379,0.231,0.393,0.364,0.332,0.193,0.163,south-southwest,12.3,No
2017/04/07,01:10,0.380,0.231,0.394,0.364,0.329,0.192,0.164,south-southwest,12.9,No
2017/04/07,01:20,0.380,0.230,0.392,0.365,0.331,0.191,0.163,south,13.4,No
2017/04/07,01:30,0.379,0.230,0.394,0.365,0.329,0.192,0.164,south,12.5,No
2017/04/07,01:40,0.380,0.230,0.394,0.363,0.330,0.193,0.163,south-southwest,13.6,No
2017/04/07,01:50,0.379,0.230,0.392,0.365,0.332,0.191,0.163,south-southwest,13.3,No
2017/04/07,02:00,0.378,0.231,0.393,0.365,0.328,0.192,0.163,south-southwest,12.5,No
2017/04/07,02:10,0.380,0.231,0.391,0.363,0.333,0.193,0.162,south-southwest,12.9,No
2017/04/07,02:20,0.378,0.231,0.393,0.366,0.329,0.191,0.163,south,12.1,Yes
2017/04/07,02:30,0.380,0.229,0.391,0.363,0.332,0.192,0.162,south,11.7,Yes
2017/04/07,02:40,0.378,0.229,0.392,0.365,0.331,0.192,0.163,south-southwest,12.1,Yes
2017/04/07,02:50,0.380,0.230,0.392,0.365,0.330,0.191,0.162,south-southwest,12.4,Yes
2017/04/07,03:00,0.379,0.230,0.391,0.366,0.332,0.192,0.164,south-southwest,12.7,Yes
2017/04/07,03:10,0.380,0.232,0.393,0.365,0.328,0.192,0.165,south-southwest,12.6,Yes
2017/04/07,03:20,0.380,0.230,0.394,0.364,0.332,0.192,0.163,south-southwest,11.8,Yes
2017/04/07,03:30,0.378,0.230,0.393,0.366,0.328,0.192,0.162,south-southwest,13.7,No
2017/04/07,03:40,0.380,0.231,0.392,0.363,0.331,0.192,0.163,south-southwest,12.2,No
2017/04/07,03:50,0.379,0.230,0.392,0.367,0.330,0.191,0.163,south,12.2,No
2017/04/07,04:00,0.382,0.230,0.395,0.364,0.331,0.192,0.163,south-southwest,13.2,No
2017/04/07,04:10,0.378,0.230,0.391,0.366,0.332,0.192,0.163,south-southwest,13.0,No
2017/04/07,04:20,0.380,0.229,0.393,0.363,0.330,0.192,0.162,south-southwest,12.6,No
2017/04/07,04:30,0.379,0.231,0.393,0.365,0.331,0.192,0.163,south-southwest,12.8,No
2017/04/07,04:40,0.379,0.229,0.393,0.364,0.329,0.192,0.163,south-southwest,13.8,No
2017/04/07,04:50,0.381,0.231,0.393,0.365,0.330,0.192,0.162,south-southwest,14.7,Yes
2017/04/07,05:00,0.378,0.230,0.391,0.365,0.328,0.191,0.162,south-southwest,13.4,Yes
2017/04/07,05:10,0.382,0.230,0.394,0.363,0.330,0.192,0.162,south-southwest,11.5,No
2017/04/07,05:20,0.378,0.231,0.393,0.364,0.331,0.192,0.163,south-southwest,11.7,No
2017/04/07,05:30,0.380,0.230,0.393,0.366,0.330,0.192,0.163,south-southwest,10.5,Yes
2017/04/07,05:40,0.379,0.230,0.393,0.365,0.331,0.192,0.163,south-southwest,10.9,Yes
2017/04/07,05:50,0.380,0.230,0.393,0.366,0.330,0.192,0.163,south-southwest,12.9,Yes
2017/04/07,06:00,0.379,0.230,0.394,0.364,0.331,0.191,0.163,south-southwest,12.4,Yes
2017/04/07,06:10,0.381,0.232,0.394,0.366,0.331,0.192,0.163,south-southwest,11.5,Yes
2017/04/07,06:20,0.381,0.230,0.393,0.366,0.331,0.192,0.163,south-southwest,11.8,Yes
2017/04/07,06:30,0.379,0.231,0.395,0.365,0.330,0.192,0.164,south-southwest,12.5,Yes
2017/04/07,06:40,0.380,0.230,0.392,0.364,0.330,0.191,0.162,south,10.7,Yes
2017/04/07,06:50,0.380,0.230,0.396,0.363,0.331,0.192,0.163,south-southwest,10.8,Yes
2017/04/07,07:00,0.380,0.231,0.392,0.367,0.329,0.194,0.164,south,11.2,Yes
2017/04/07,07:10,0.379,0.233,0.393,0.365,0.332,0.193,0.163,south-southwest,12.2,Yes
2017/04/07,07:20,0.379,0.231,0.394,0.366,0.331,0.194,0.164,south-southwest,12.1,Yes
2017/04/07,07:30,0.382,0.231,0.392,0.365,0.330,0.193,0.164,south-southwest,12.5,Yes
2017/04/07,07:40,0.379,0.232,0.394,0.365,0.331,0.194,0.164,south-southwest,12.9,Yes
2017/04/07,07:50,0.380,0.231,0.393,0.365,0.330,0.194,0.165,south-southwest,12.9,Yes
2017/04/07,08:00,0.379,0.231,0.393,0.364,0.332,0.192,0.165,south-southwest,13.1,Yes
2017/04/07,08:10,0.382,0.231,0.393,0.364,0.330,0.193,0.164,south-southwest,11.4,Yes
2017/04/07,08:20,0.378,0.230,0.393,0.363,0.333,0.193,0.164,south-southwest,10.8,Yes
2017/04/07,08:30,0.380,0.232,0.393,0.366,0.328,0.192,0.164,south,10.6,Yes
2017/04/07,08:40,0.380,0.229,0.392,0.365,0.330,0.193,0.163,south-southwest,9.6,Yes
2017/04/07,08:50,0.380,0.231,0.393,0.365,0.330,0.193,0.163,south,11.3,No
2017/04/07,09:00,0.381,0.230,0.392,0.366,0.330,0.191,0.163,south-southwest,11.5,Yes
2017/04/07,09:10,0.379,0.230,0.394,0.363,0.331,0.193,0.164,south-southwest,11.3,Yes
2017/04/07,09:20,0.381,0.230,0.392,0.365,0.330,0.192,0.163,south-southwest,11.0,Yes
2017/04/07,09:30,0.379,0.230,0.392,0.363,0.330,0.192,0.164,south-southwest,11.5,No
2017/04/07,09:40,0.380,0.231,0.393,0.365,0.329,0.191,0.163,south-southwest,9.5,No
2017/04/07,09:50,0.378,0.229,0.392,0.362,0.331,0.190,0.164,south-southwest,8.9,No
2017/04/07,10:00,0.381,0.230,0.393,0.366,0.328,-,0.163,south-southwest,8.9,No
2017/04/07,10:10,0.377,0.230,0.391,0.363,0.331,-,0.163,south-southwest,10.0,Yes
2017/04/07,10:20,0.381,0.230,0.394,0.366,0.328,-,0.163,south-southwest,9.0,No
2017/04/07,10:30,0.379,0.230,0.391,0.362,0.330,-,0.163,south-southwest,9.0,No
2017/04/07,10:40,0.380,0.229,0.394,0.365,0.328,-,0.163,south-southwest,7.1,No
2017/04/07,10:50,0.377,0.230,0.390,0.362,0.330,-,0.163,south-southwest,7.5,No
2017/04/07,11:00,0.381,0.230,0.393,0.365,0.330,-,0.163,south-southwest,6.6,No
2017/04/07,11:10,0.378,0.230,0.391,0.362,0.330,-,0.162,south-southwest,7.5,No
2017/04/07,11:20,0.380,0.229,0.391,0.365,0.330,-,0.163,south-southwest,7.0,No
2017/04/07,11:30,0.378,0.229,0.391,0.361,0.327,-,0.162,south-southwest,5.3,No
2017/04/07,11:40,0.375,0.230,0.389,0.364,0.331,0.194,0.162,south,4.4,No
2017/04/07,11:50,0.380,0.228,0.391,0.361,0.329,0.193,0.162,south,7.1,No
2017/04/07,12:00,0.376,0.230,0.390,0.364,0.331,0.193,0.161,south,8.7,No
2017/04/07,12:10,0.381,0.230,0.394,0.364,0.328,0.192,0.162,south,8.1,No
2017/04/07,12:20,0.379,0.230,0.391,0.365,0.332,0.192,0.162,south,7.0,No
2017/04/07,12:30,0.376,0.228,0.390,0.364,0.330,0.192,0.163,south,5.4,No
2017/04/07,12:40,0.379,0.230,0.395,0.362,0.327,0.192,0.162,south,7.6,No
2017/04/07,12:50,0.379,0.229,0.392,0.364,0.327,0.191,0.164,south,7.9,No
2017/04/07,13:00,0.375,0.228,0.389,0.364,0.331,0.191,0.162,south,8.4,No
2017/04/07,13:10,0.379,0.229,0.388,0.363,0.330,0.191,0.161,south,6.1,No
2017/04/07,13:20,0.380,0.229,0.388,0.359,0.328,0.190,0.162,south,6.1,No
2017/04/07,13:30,0.377,0.229,0.387,0.359,0.328,0.192,0.163,south-southwest,4.4,No
2017/04/07,13:40,0.382,0.231,0.388,0.365,0.326,0.192,0.162,west-southwest,3.8,No
2017/04/07,13:50,0.381,0.231,0.396,0.366,0.326,0.192,0.165,south-southwest,3.5,No
2017/04/07,14:00,0.377,0.229,0.395,0.364,0.328,0.192,0.163,southwest,4.1,No
2017/04/07,14:10,0.375,0.229,0.393,0.362,0.327,0.191,0.162,southwest,5.7,No
2017/04/07,14:20,0.377,0.229,0.391,0.360,0.327,0.192,0.163,southwest,4.1,No
2017/04/07,14:30,0.382,0.231,0.391,0.362,0.327,0.192,0.162,south-southwest,6.7,No
2017/04/07,14:40,0.377,0.230,0.390,0.367,0.332,0.192,0.163,south-southwest,6.8,No
2017/04/07,14:50,0.380,0.229,0.395,0.364,0.332,0.192,0.163,southwest,6.1,No
2017/04/07,15:00,0.382,0.231,0.395,0.365,0.329,0.193,0.162,south-southwest,4.8,No
2017/04/07,15:10,0.378,0.230,0.390,0.366,0.334,0.193,0.164,south-southwest,5.6,No
2017/04/07,15:20,0.380,0.231,0.396,0.364,0.332,0.192,0.163,south-southwest,4.9,No
2017/04/07,15:30,0.383,0.230,0.395,0.366,0.331,0.193,0.164,west-southwest,2.2,No
2017/04/07,15:40,0.376,0.230,0.392,0.366,0.333,0.191,0.163,west-northwest,4.2,No
2017/04/07,15:50,0.380,0.232,0.397,0.361,0.332,0.192,0.163,west-northwest,3.6,No
2017/04/07,16:00,0.380,0.232,0.394,0.368,0.328,0.192,0.163,northwest,5.3,No
2017/04/07,16:10,0.377,0.230,0.392,0.367,0.330,0.191,0.163,west-northwest,3.9,No
2017/04/07,16:20,0.383,0.231,0.397,0.363,0.331,0.191,0.162,southwest,3.0,No
2017/04/07,16:30,0.380,0.231,0.393,0.366,0.330,0.192,0.163,west,2.5,No
2017/04/07,16:40,0.377,0.231,0.393,0.364,0.327,0.192,0.164,west-southwest,1.7,No
2017/04/07,16:50,0.382,0.232,0.395,0.366,0.328,0.192,0.163,west-northwest,3.6,No
2017/04/07,17:00,0.379,0.230,0.392,0.366,0.329,0.194,0.164,west,2.8,No
2017/04/07,17:10,0.381,0.230,0.395,0.364,0.332,0.192,0.163,west-northwest,1.3,No
2017/04/07,17:20,0.381,0.230,0.394,0.367,0.330,0.192,0.164,west-northwest,0.6,No
2017/04/07,17:30,0.378,0.232,0.392,0.364,0.330,0.193,0.163,northwest,1.4,No
2017/04/07,17:40,0.383,0.229,0.394,0.368,0.334,0.192,0.163,west-northwest,2.9,No
2017/04/07,17:50,0.378,0.232,0.393,0.365,0.330,0.192,0.164,northwest,2.1,No
2017/04/07,18:00,0.381,0.231,0.396,0.366,0.334,0.192,0.163,north-northwest,1.6,No
2017/04/07,18:10,0.381,0.232,0.393,0.366,0.331,0.193,0.163,west-northwest,2.2,No
2017/04/07,18:20,0.380,0.229,0.394,0.365,0.332,0.192,0.164,north,3.7,No
2017/04/07,18:30,0.381,0.231,0.393,0.367,0.332,0.193,0.163,north-northeast,3.9,No
2017/04/07,18:40,0.380,0.230,0.394,0.366,0.331,0.191,0.163,north,4.6,No
2017/04/07,18:50,0.382,0.231,0.395,0.367,0.333,0.193,0.163,north-northeast,5.8,No
2017/04/07,19:00,0.381,0.231,0.394,0.366,0.332,0.194,0.164,north-northeast,5.8,No
2017/04/07,19:10,0.381,0.231,0.394,0.367,0.332,0.192,0.164,north,4.0,No
2017/04/07,19:20,0.382,0.230,0.396,0.365,0.332,0.192,0.163,north,2.7,No
2017/04/07,19:30,0.380,0.232,0.395,0.367,0.332,0.192,0.164,north-northeast,3.4,No
2017/04/07,19:40,0.381,0.232,0.396,0.365,0.332,0.193,0.163,north-northeast,4.2,No
2017/04/07,19:50,0.379,0.230,0.394,0.365,0.332,0.193,0.164,north-northeast,4.4,No
2017/04/07,20:00,0.383,0.230,0.396,0.366,0.333,0.192,0.163,north-northeast,3.8,No
2017/04/07,20:10,0.379,0.231,0.394,0.364,0.329,0.192,0.164,north,3.5,No
2017/04/07,20:20,0.383,0.231,0.396,0.368,0.332,0.193,0.164,north-northeast,3.9,No
2017/04/07,20:30,0.380,0.232,0.395,0.364,0.329,0.193,0.164,north-northeast,3.9,No
2017/04/07,20:40,0.382,0.230,0.395,0.368,0.333,0.192,0.163,north-northeast,4.2,No
2017/04/07,20:50,0.381,0.231,0.395,0.366,0.331,0.192,0.164,north-northeast,3.8,No
2017/04/07,21:00,0.380,0.231,0.393,0.366,0.332,0.193,0.163,north-northeast,3.7,No
2017/04/07,21:10,0.381,0.232,0.397,0.367,0.331,0.193,0.164,north-northeast,3.6,No
2017/04/07,21:20,0.380,0.231,0.394,0.366,0.332,0.193,0.163,north-northeast,4.3,No
2017/04/07,21:30,0.383,0.232,0.395,0.368,0.332,0.192,0.164,north,3.6,No
2017/04/07,21:40,0.379,0.231,0.396,0.365,0.330,0.194,0.165,north,3.6,No
2017/04/07,21:50,0.382,0.232,0.395,0.368,0.334,0.193,0.164,north,4.7,No
2017/04/07,22:00,0.379,0.232,0.396,0.366,0.333,0.193,0.163,north,2.2,No
2017/04/07,22:10,0.382,0.231,0.396,0.368,0.333,0.193,0.163,north,3.9,No
2017/04/07,22:20,0.381,0.230,0.396,0.368,0.332,0.193,0.163,north-northwest,4.9,No
2017/04/07,22:30,0.380,0.231,0.396,0.365,0.331,0.191,0.164,north-northwest,5.0,No
2017/04/07,22:40,0.383,0.232,0.395,0.367,0.334,0.193,0.165,north,4.2,No
2017/04/07,22:50,0.381,0.231,0.396,0.366,0.331,0.193,0.164,north-northwest,3.6,No
2017/04/07,23:00,0.383,0.232,0.396,0.368,0.333,0.193,0.163,north-northwest,3.6,No
2017/04/07,23:10,0.381,0.231,0.397,0.367,0.332,0.193,0.164,north,3.3,No
2017/04/07,23:20,0.382,0.232,0.395,0.366,0.332,0.193,0.163,north,3.9,No
2017/04/07,23:30,0.382,0.233,0.395,0.367,0.333,0.193,0.164,north,4.1,No
2017/04/07,23:40,0.380,0.231,0.396,0.365,0.329,0.194,0.165,north,5.2,No
2017/04/07,23:50,0.383,0.231,0.396,0.366,0.333,0.193,0.165,north,7.8,No
